Theta_e
329 330 330 331 331 330 331 330 330 331 330 329 329 329 328 327 327 326 325 324 321 321 320 320 320 320 320 320 321 321 321 320 318 319 316 314 312 310 309 309 308 305 303
327 328 329 329 330 331 331 330 330 330 330 330 329 328 327 327 326 326 325 323 320 320 320 320 320 320 321 321 321 321 320 319 317 314 312 311 309 308 307 304 302 301 301
326 327 328 328 329 330 330 330 330 330 330 329 328 327 327 326 326 325 324 323 321 321 320 320 321 322 321 321 321 319 317 317 314 310 308 306 306 305 302 300 300 299 298
324 326 326 327 328 328 329 330 330 330 330 329 328 327 326 325 325 324 324 323 322 321 322 322 322 322 320 320 318 316 313 311 309 308 306 304 302 299 298 297 298 297 295
321 324 324 325 325 326 327 328 329 329 328 327 326 325 324 324 324 323 323 322 322 322 321 321 321 319 317 316 315 312 309 307 306 305 301 300 298 298 298 296 293 294 294
319 322 322 323 324 324 325 325 326 325 325 324 323 323 322 322 323 323 322 321 321 320 320 317 316 314 311 311 308 307 306 303 300 300 299 298 298 298 296 294 293 291 291
314 318 320 321 322 322 323 323 323 322 322 322 321 321 321 321 321 320 320 320 319 318 316 312 310 308 308 307 304 304 304 300 300 300 299 298 296 296 294 293 292 291 290
308 313 315 316 317 318 318 319 319 319 319 318 318 318 318 318 318 318 317 316 314 312 310 309 308 307 305 303 302 301 300 298 297 297 296 296 295 294 293 292 291 290 290
305 309 312 311 310 312 314 314 315 315 315 316 316 316 315 313 311 312 311 309 308 308 307 305 304 302 301 300 299 298 296 294 294 294 294 293 293 291 291 291 290 289 290
303 305 308 310 311 312 313 314 314 314 314 313 312 312 312 310 306 307 306 305 304 302 300 299 299 299 298 296 296 293 293 293 293 293 293 292 292 291 291 291 290 289 290
305 304 304 306 310 311 309 310 311 309 309 307 306 305 306 305 304 303 302 301 300 298 297 295 295 295 294 292 292 293 293 292 292 292 292 291 291 291 290 290 289 289 288
304 303 302 303 305 305 305 302 300 301 300 300 300 300 300 301 301 300 300 299 299 298 296 295 293 292 291 291 292 292 292 291 291 291 291 290 290 289 288 287 287 288 287
303 302 301 300 300 301 299 296 296 296 297 296 296 295 294 296 297 298 297 298 297 297 296 295 292 291 290 290 290 291 291 291 290 290 289 289 288 288 287 287 286 285 285
300 299 297 296 295 295 295 295 296 296 296 295 294 294 292 292 293 294 294 293 294 295 294 291 290 289 289 289 289 289 289 289 289 288 288 287 287 286 286 285 285 284 284
297 295 294 294 293 294 295 295 296 296 296 295 294 294 292 291 291 293 292 292 293 293 291 289 288 288 287 287 288 287 287 287 287 287 286 286 285 285 285 284 284 284 284
294 293 293 293 293 294 294 294 295 297 296 295 295 295 293 293 292 292 291 291 291 291 289 288 288 288 288 287 287 286 286 286 286 285 284 284 284 284 284 284 284 284 284
294 293 293 293 293 293 292 292 291 292 294 294 294 293 294 293 293 292 290 289 290 289 289 288 288 288 288 287 286 286 285 284 283 283 283 283 283 283 283 283 283 284 284
291 292 292 293 292 292 292 292 291 290 289 288 291 292 292 292 292 291 289 288 289 288 288 288 288 287 286 285 284 283 282 281 281 281 281 281 281 281 280 281 280 280 280
289 289 290 291 291 291 291 291 290 290 289 288 287 288 289 289 289 288 288 288 288 287 287 286 285 284 283 283 281 281 280 279 279 279 278 278 277 277 277 277 277 276 276
286 287 288 289 289 290 290 290 289 289 287 287 288 287 287 288 289 289 288 287 286 284 284 283 282 281 280 279 279 278 278 277 276 276 275 275 274 274 273 273 273 273 273
284 284 285 286 286 287 287 287 286 285 285 285 283 283 285 285 284 283 285 285 284 284 282 280 279 279 278 278 277 276 275 275 274 274 273 273 273 272 272 272 271 271 271
280 281 282 282 283 283 284 283 283 283 283 280 280 281 282 282 282 283 282 281 280 280 279 278 278 277 277 276 275 275 274 273 273 273 273 272 272 271 271 270 270 269 269
275 276 276 277 278 279 280 280 280 280 279 279 279 279 278 278 278 279 279 279 278 277 277 277 276 276 275 275 274 273 273 273 273 272 272 271 271 270 269 269 268 268 268
273 273 274 274 275 275 276 276 277 277 277 276 276 276 276 276 275 275 275 275 275 275 275 275 275 274 274 273 273 272 272 272 272 271 271 270 270 269 269 268 268 267 267
271 271 272 272 273 273 274 274 274 274 274 274 274 274 274 273 273 273 273 274 273 274 274 273 273 273 273 272 271 271 271 271 270 270 269 269 269 268 268 267 267 266 266
268 269 269 270 270 271 271 272 272 272 272 272 273 272 272 272 272 272 272 272 272 271 272 272 272 272 271 271 271 270 270 270 269 269 268 268 268 267 267 266 266 266 266
Wind_Speed
35 35 36 37 38 37 37 37 37 33 32 32 30 30 30 29 29 29 27 26 28 28 27 29 30 25 25 25 27 28 26 24 13 11 13 14 15 14 16 19 20 21 22
31 33 35 36 35 36 38 38 34 35 33 32 31 31 30 29 29 28 27 27 27 26 28 27 28 26 26 27 26 25 24 21 21 13 11 12 14 16 18 18 18 19 21
30 31 33 35 36 37 37 35 33 32 33 32 30 30 30 30 29 29 28 25 25 25 25 26 26 25 26 21 21 21 20 18 18 16 11 12 15 17 16 18 19 20 21
24 28 30 32 35 35 34 33 34 34 32 31 32 31 31 29 29 28 28 26 24 24 24 23 23 23 23 20 20 19 17 17 16 17 16 17 14 11 15 15 18 17 19
22 25 30 31 30 30 31 31 32 32 32 32 31 29 29 30 31 31 30 29 27 27 23 21 19 19 19 18 18 16 15 15 17 16 14 9 10 13 11 9 14 16 21
23 26 27 27 29 31 30 32 33 34 34 32 32 32 32 32 31 29 28 27 26 25 24 21 19 18 16 15 14 15 18 14 13 11 11 9 13 12 9 8 9 5 4
24 25 26 27 30 33 34 34 33 32 30 31 32 32 30 29 28 27 26 25 24 23 22 20 17 17 16 16 15 15 15 16 16 16 16 13 10 9 8 8 7 8 8
28 27 29 31 32 35 35 35 35 33 33 32 30 28 27 26 25 24 24 23 21 21 20 19 20 18 17 16 15 14 14 12 12 13 14 12 10 9 8 9 8 9 11
28 29 31 30 29 33 34 34 34 33 31 31 30 28 28 27 26 24 22 21 21 21 21 19 18 17 15 15 14 13 10 7 6 5 4 2 2 2 3 4 3 3 3
27 33 31 31 33 35 36 36 35 33 33 31 29 29 29 28 27 25 24 25 24 22 18 16 16 15 14 13 12 10 9 8 7 6 5 3 1 1 3 5 5 5 6
32 33 33 32 34 34 33 34 34 33 31 30 30 28 27 28 27 26 25 24 24 22 20 18 15 15 14 12 10 11 11 12 10 8 7 3 2 4 5 5 6 7 9
31 31 32 32 31 30 30 28 28 30 29 28 28 26 26 26 26 25 24 21 22 24 23 20 17 14 13 13 13 14 13 11 9 9 7 4 4 3 3 5 6 7 11
29 31 32 30 30 31 32 29 27 27 25 23 24 21 23 25 23 23 22 22 22 24 23 20 17 14 15 15 13 14 14 12 11 10 8 5 0 5 7 10 9 10 12
28 27 27 27 25 27 25 27 25 25 23 23 21 19 19 24 25 24 22 23 22 21 21 19 17 15 14 14 15 14 14 12 11 10 8 4 1 1 5 7 9 9 10
23 20 21 22 25 26 26 28 27 27 28 25 25 26 27 25 30 32 31 31 29 28 26 23 20 18 16 13 11 11 11 10 10 8 7 5 2 1 3 4 7 8 8
14 16 17 19 21 22 23 19 22 28 26 27 26 31 28 26 30 32 31 28 28 29 27 20 17 17 15 13 12 11 9 9 9 8 7 5 4 1 2 4 6 8 10
11 14 16 19 19 20 20 20 17 17 20 24 24 27 29 31 29 31 29 27 28 29 20 19 18 17 16 14 12 12 11 9 8 6 6 4 3 1 2 4 8 9 10
7 12 15 16 17 18 20 21 21 21 17 15 20 24 26 26 25 28 26 25 26 23 17 17 17 17 15 15 15 15 12 10 9 9 7 5 4 2 1 3 6 8 10
3 8 10 13 15 16 17 17 18 18 18 18 19 19 23 24 24 24 28 23 23 20 18 16 16 16 16 17 16 15 13 12 11 9 8 7 6 5 4 4 5 6 8
4 2 6 8 11 13 14 16 16 16 16 20 19 19 27 28 25 26 24 20 20 20 21 21 19 18 17 16 14 13 12 12 11 9 9 8 6 4 4 3 2 4 6
7 4 3 7 8 9 9 11 13 15 16 16 14 23 28 24 18 23 26 22 23 23 22 20 18 17 15 14 14 13 13 11 11 10 9 8 6 5 4 2 1 3 6
8 7 6 6 7 7 9 12 12 14 15 16 20 20 20 20 17 21 21 20 19 19 19 17 16 15 14 14 14 14 14 13 12 11 9 8 6 4 3 2 2 3 5
20 18 15 10 5 6 7 7 10 12 14 17 19 22 18 17 18 21 21 21 20 19 18 17 16 16 16 16 16 16 15 14 12 11 10 8 6 5 4 4 4 5 6
24 22 19 17 15 12 9 8 8 10 12 14 16 16 15 15 16 17 18 17 18 17 17 17 16 16 16 17 17 16 15 14 12 12 10 9 8 7 6 5 6 6 7
26 24 21 19 18 16 14 12 11 9 9 10 11 10 11 12 13 13 14 15 15 15 16 15 16 17 17 17 17 15 15 15 13 12 11 10 9 8 8 9 8 8 9
25 24 22 20 19 18 16 14 13 9 7 5 3 3 6 8 10 11 13 14 15 15 15 17 17 16 17 18 18 17 17 15 14 13 13 12 11 10 10 10 10 10 10
Wind_Direction
219 218 217 217 217 217 218 220 221 220 218 216 213 212 213 214 215 216 221 223 226 230 230 233 240 236 239 242 253 251 248 249 253 269 269 272 273 280 289 293 291 287 285
222 217 217 217 216 216 218 219 218 217 216 216 212 210 213 214 213 213 217 220 222 225 229 231 237 241 245 249 251 254 253 256 258 269 266 274 282 295 292 288 287 287 287
217 218 218 217 214 214 216 216 213 215 214 212 210 211 212 213 212 213 215 216 218 223 230 233 237 245 247 245 252 252 245 248 253 257 270 273 289 294 292 299 300 300 296
226 221 220 220 219 217 215 212 210 211 210 209 211 212 213 213 212 214 214 216 220 225 227 239 242 244 241 234 236 237 248 255 257 263 272 280 284 290 309 309 307 312 309
226 227 226 222 221 221 217 212 210 209 209 210 210 212 215 216 218 219 222 223 226 234 235 235 227 229 238 234 235 244 254 263 269 265 265 277 289 293 300 303 303 314 308
217 224 224 222 219 216 214 210 209 211 212 211 211 213 214 218 222 226 228 225 228 227 217 216 223 223 225 233 245 251 256 243 243 243 250 245 259 272 281 292 295 303 317
223 223 223 219 215 210 210 211 210 209 207 207 214 218 220 222 222 222 225 222 215 213 214 214 218 227 237 244 242 237 242 240 240 246 245 249 270 287 294 298 300 290 259
223 220 221 219 218 216 213 213 213 214 216 215 215 216 215 212 212 210 205 201 208 213 218 221 224 233 230 225 227 231 234 239 242 239 246 257 264 280 291 297 300 296 288
229 221 219 215 213 216 217 214 213 208 206 206 205 201 199 196 196 201 207 203 207 211 217 220 217 210 215 220 222 227 235 239 231 234 234 254 305 319 323 325 329 332 331
230 232 229 221 215 214 215 211 206 203 201 199 197 201 201 197 197 204 205 207 204 200 198 197 198 201 208 210 212 203 186 186 184 175 161 159 208 296 307 306 297 288 284
242 237 230 223 217 216 208 207 204 199 198 195 193 193 196 198 197 202 203 200 197 189 188 185 191 193 193 186 186 179 185 179 166 159 142 129 48 355 336 318 300 284 273
240 232 226 217 210 206 202 197 195 187 182 184 186 186 193 194 194 194 200 206 202 194 192 193 188 184 175 174 181 175 178 171 153 134 116 88 51 34 334 310 292 279 268
227 220 216 209 203 200 193 183 176 179 174 172 174 175 182 190 193 200 199 201 199 195 194 192 182 173 163 172 178 184 184 177 156 129 124 129 352 316 309 311 316 313 304
218 210 204 191 185 189 186 180 177 180 180 175 174 174 171 182 189 191 193 186 187 185 177 173 172 172 178 183 182 188 179 181 166 146 137 134 122 344 336 336 332 326 316
212 194 185 184 179 178 184 185 185 191 189 181 181 177 175 185 192 194 188 184 181 178 172 171 171 174 169 165 171 171 157 153 139 131 125 127 121 26 347 338 322 314 312
186 184 186 184 181 181 175 171 194 197 196 196 195 196 193 197 196 194 189 185 184 179 172 171 176 177 172 172 176 171 159 150 143 141 138 140 144 148 289 307 303 300 293
210 191 185 180 179 172 168 168 151 163 198 199 195 201 208 197 192 191 187 182 182 179 178 180 185 180 167 168 166 173 159 154 155 136 139 153 155 166 294 303 294 289 290
222 199 189 185 181 177 172 171 169 163 167 158 187 195 199 197 181 185 180 168 172 185 184 182 178 171 167 170 172 173 165 162 165 170 164 181 186 185 267 303 305 323 324
189 187 184 177 176 175 172 170 167 167 161 150 156 173 178 173 172 178 175 177 175 182 181 175 176 173 170 177 183 181 179 179 181 174 176 184 185 181 185 223 260 292 300
12 228 182 162 161 165 168 167 164 161 153 154 164 169 152 150 167 178 180 174 173 177 178 181 181 183 182 185 190 192 191 191 185 179 181 183 181 178 184 224 268 290 298
45 67 147 168 148 147 155 159 159 152 153 157 151 163 154 151 157 169 176 181 191 192 189 188 184 186 188 193 200 201 202 199 191 184 178 178 176 170 189 213 258 276 289
40 60 76 91 107 128 140 150 150 149 150 145 150 147 159 164 174 182 184 182 183 184 187 189 190 194 199 204 208 209 206 202 197 190 186 182 177 175 181 189 245 269 291
28 39 41 45 73 110 123 149 148 144 146 149 151 154 159 167 182 187 187 188 185 185 188 192 198 203 206 208 209 211 210 207 204 199 194 189 185 192 200 205 230 263 271
29 33 36 39 46 56 69 85 106 122 130 132 150 159 163 174 183 186 188 188 190 192 195 201 205 208 212 213 214 212 211 211 210 209 207 202 198 203 216 233 243 256 272
28 29 30 30 31 33 43 56 71 89 109 127 135 148 167 185 191 195 199 199 203 208 209 208 211 214 218 219 219 217 217 218 218 219 217 216 213 219 230 242 250 255 264
19 21 21 23 25 26 29 30 34 38 47 57 100 189 206 214 215 216 219 216 214 216 219 223 223 222 225 225 224 224 224 225 225 225 223 224 228 236 238 244 249 256 263